Regional Weather Roundup
Issued by NWS

Home | Current Version | Previous Version | Graphics & Text | Print | Product List | Glossary On
Versions: 1 2 3 4 5 6 7 8 9 10 11 12 13 14 15 16 17 18 19 20 21 22 23 24 25 26 27
000
ASUS45 KBOU 280607
RWRCO

WEATHER ROUNDUP FOR COLORADO
NATIONAL WEATHER SERVICE DENVER/BOULDER CO
1200 AM MDT TUE MAR 28 2017

NOTE: "FAIR" INDICATES FEW OR NO CLOUDS BELOW 12000 FEET WITH NO
SIGNIFICANT WEATHER AND/OR OBSTRUCTIONS TO VISIBILITY.

COZ001>005-013-030-031-280700-
...NORTHWEST COLORADO...

CITY           SKY/WX    TMP DP  RH WIND       PRES   REMARKS
CRAIG          FAIR      36  32  85 CALM      29.84F
HAYDEN         FAIR      37  30  75 SE9       29.84S
MEEKER         CLOUDY    36  31  82 SW10      29.84R
MOUNT WERNER   NOT AVBL
STEAMBOAT SPGS FAIR      34  32  93 CALM      29.84S
WALDEN         NOT AVBL
$$

COZ006>008-011-280700-
...WEST CENTRAL VALLEYS...

CITY           SKY/WX    TMP DP  RH WIND       PRES   REMARKS
GRAND JUNCTION LGT RAIN  42  42 100 NE7       29.85F
MONTROSE       CLOUDY    40  37  89 S5        29.87S
EAGLE          CLOUDY    43  30  60 CALM      29.87R
RIFLE          CLOUDY    47  36  65 W18       29.82R
DELTA          CLOUDY    44  39  83 NE9       29.86S
NUCLA          RAIN      41  36  81 W8        29.90R
$$

COZ017>023-064>068-280700-
...SOUTHWEST COLORADO...

CITY           SKY/WX    TMP DP  RH WIND       PRES   REMARKS
DURANGO        LGT RAIN  40  37  89 E6        29.87F
CORTEZ         FAIR      41  39  93 CALM      29.86R
PAGOSA SPRINGS CLOUDY    37  36  96 CALM      29.92F
TELLURIDE      NOT AVBL
WOLF CREEK PAS HVY SNOW  23  23 100 S25G41    29.99R VSB 1/4 WCI   7
$$

COZ009-010-012-014-032>034-037-058>063-280700-
...CENTRAL COLORADO...

CITY           SKY/WX    TMP DP  RH WIND       PRES   REMARKS
ASPEN          RAIN      36  33  89 N5        29.87R
BUENA VISTA    FAIR      41  30  64 S12       29.86F
COPPER MTN     CLOUDY    28  23  80 E5        29.95F WCI  23
BERTHOUD PASS  FAIR      21  10  63 W10       29.97S WCI  10
COTTONWOOD PAS CLOUDY    36  30  80 CALM      29.91F
GUNNISON       LGT RAIN  39  33  79 W15G21    29.88R
KREMMLING      MOCLDY    37  34  87 CALM      29.88F
LEADVILLE      CLOUDY    31  26  82 SE3       29.89F
MONARCH PASS   MOCLDY    27  23  86 S7        30.07S WCI  19
SALIDA         CLOUDY    47  31  54 S8        29.95S
SUNLIGHT       LGT SNOW  27  25  93 S8        29.97R VSB 1   WCI  18
WILKERSON PASS CLOUDY    28  27  93 S3        29.99R
$$

COZ069>075-280700-
...SAN LUIS VALLEY/SANGRE DE CRISTO MOUNTAINS...

CITY           SKY/WX    TMP DP  RH WIND       PRES   REMARKS
ALAMOSA        FAIR      38  34  85 SE12      29.89S
LA VETA PASS   NOT AVBL
SAGUACHE       FAIR      37  32  81 E9        29.90F
$$

COZ035-036-038>040-280700-
...NORTHERN COLORADO FRONT RANGE...

CITY           SKY/WX    TMP DP  RH WIND       PRES   REMARKS
DENVER INTL AP FAIR      46  42  86 SW10      29.81S
DMNS CITY PARK   N/A     46  43  86 N3        29.83R
AURORA         CLOUDY    44  42  94 W3        29.83S
FRONT RANGE AP MOCLDY    45  41  87 S8        29.83S
ERIE MUNI ARPT MOCLDY    47  42  81 NW6       29.83S
BOULDER MUN AP CLOUDY    45  43  93 W5        29.83F
CENTENNIAL     MOCLDY    47  39  74 CALM      29.83S
BROOMFIELD     CLOUDY    46  41  81 NW14      29.84R
FORT COLLINS   LGT RAIN  47  43  86 N7        29.85R
LONGMONT       LGT RAIN  48  44  84 NW9       29.85F
$$

COZ041-046-047-076>085-087-088-280700-
...PIKES PEAK/PALMER DIVIDE AND SOUTHERN FOOTHILLS...

CITY           SKY/WX    TMP DP  RH WIND       PRES   REMARKS
COLO. SPRINGS  CLOUDY    46  40  79 SE8       29.87S
A. F. ACADEMY  NOT AVBL
SCHRIEVER AFB  MOCLDY    44  41  88 SE13      29.87S
ELLICOTT       NOT AVBL
FALCON         CLOUDY    42  40  91 S13       29.88S
FORT CARSON    CLOUDY    46  42  84 CALM      29.86R
LIMON          LGT RAIN  46  41  82 SE26G39   29.86R
MONUMENT HILL  FAIR      37  36  93 S16       29.87S
TRINIDAD       CLOUDY    48  39  71 SE9       29.85R
$$

COZ042>045-048>051-090-091-280700-
...NORTHEAST COLORADO...

CITY           SKY/WX    TMP DP  RH WIND       PRES   REMARKS
GREELEY ARPT   CLOUDY    48  42  80 NE15      29.82F
AKRON          FAIR      48  36  63 SE20G28   29.85R
BURLINGTON     CLOUDY    47  39  74 SE18G26   29.89R
WRAY           NOT AVBL
STERLING       CLOUDY    54  37  54 S17G23    29.84S
HOLYOKE        FAIR      52  43  71 SE17      29.89R
FORT MORGAN    CLOUDY    50  35  55 SE9       29.85S
$$

COZ086-089-092>099-280700-
...SOUTHEAST COLORADO...

CITY           SKY/WX    TMP DP  RH WIND       PRES   REMARKS
PUEBLO         CLOUDY    49  45  86 E7        29.80F
LA JUNTA       CLOUDY    56  37  49 CALM      29.83S
LAMAR          CLOUDY    54  36  50 SE20      29.82S
SPRINGFIELD      N/A     48  36  63 SE14      29.85S
$$




USA.gov is the U.S. government's official web portal to all federal, state and local government web resources and services.